Regional Weather Roundup
Issued by NWS State College, PA

Home | Current Version | Previous Version | Graphics & Text | Print | Product List | Glossary Off
Versions: 1 2 3 4 5 6 7 8 9 10 11 12 13 14 15 16 17 18 19 20 21 22 23 24 25 26 27 28 29 30 31 32 33 34 35 36 37 38 39 40 41 42 43 44 45 46 47 48 49 50

000
ASUS41 KCTP 231310
RWRCTP

REGIONAL WEATHER ROUNDUP
NATIONAL WEATHER SERVICE STATE COLLEGE PA
800 AM EST THU FEB 23 2017

Note: "fair" indicates few or no clouds below 12,000 feet with no
significant weather and/or obstructions to visibility.

* = STATION THAT DOES NOT REPORT PRECIPITATION /E.G. RAIN...SNOW...ETC/
    THUNDER OR FOG.

PAZ002>004-007>009-013>016-020>023-029>032-231400-
WESTERN PENNSYLVANIA

CITY           SKY/WX    TMP DP  RH WIND       PRES   REMARKS
ERIE           CLOUDY    59  53  80 S20G25    29.72R
MEADVILLE      CLOUDY    55  51  86 SW10      29.76R
FRANKLIN*      CLOUDY    54  50  87 SW12      29.80R
NEW CASTLE     CLOUDY    56  53  90 S5        29.80R
BEAVER COUNTY  CLOUDY    55  52  88 SW8       29.81
BUTLER*        CLOUDY    55  52  88 S7        29.82S
PITTSBURGH INT CLOUDY    55  53  91 S3        29.81S
PITTSBURGH       N/A     55  51  86 MISG      29.82S
INDIANA*       CLOUDY    55  54  94 SW8       29.86R
LATROBE        PTSUNNY   54  54 100 SW12      29.85R
WASHINGTON CO* CLOUDY    55  52  88 SW8       29.86R
$$

PAZ004>006-010>012-017>019-024>028-033>037-041-042-045-046-049>053-231400-
CENTRAL PENNSYLVANIA

CITY           SKY/WX    TMP DP  RH WIND       PRES   REMARKS
BRADFORD       CLOUDY    51  51 100 S5        29.78S
DUBOIS         CLOUDY    54  49  83 SW7       29.81R
CLEARFIELD       N/A    N/A N/A N/A MISG      29.83R
JOHNSTOWN      CLOUDY    53  52  96 S9        29.85R
ALTOONA        CLOUDY    56  52  86 S8        29.86R
STATE COLLEGE  MOSUNNY   43  39  87 CALM      29.85R
WILLIAMSPORT   MOSUNNY   38  35  89 CALM      29.87R
SELINSGROVE    MOSUNNY   36  34  92 CALM      29.88R FOG
FT INDIANTOWN  CLOUDY    39  39 100 CALM      29.90R
CAPITAL CITY   CLOUDY    46  41  82 CALM      29.90R HAZE
HARRISBURG     FOG       46  46 100 E3        29.89R VSB 1/2
YORK           FOG       46  46 100 NW3       29.89R VSB 1/2
$$

PAZ038>040-043-044-047-048-054-055-060>062-067>071-231400-
EASTERN PENNSYLVANIA

CITY           SKY/WX    TMP DP  RH WIND       PRES   REMARKS
SCRANTON       PTSUNNY   43  41  93 CALM      29.86S FOG
MOUNT POCONO   SUNNY     45  45 100 W3        29.86R
ALLENTOWN      SUNNY     37  34  89 CALM      29.90R HAZE
QUAKERTOWN*    CLOUDY    41  41 100 CALM      29.90S VSB<1/4
READING        FOG       43  43 100 NW3       29.89R VSB 1/4
LANCASTER      FOG       46  46 100 CALM      29.89S VSB<1/4
COATESVILLE    FOG       48  48 100 CALM      29.90S VSB<1/4
POTTSTOWN      FOG       46  46 100 CALM      29.91R VSB 1/4
BLUE BELL      CLOUDY    45  45 100 CALM      29.90R VSB 1/4
DOYLESTOWN     FOG       47  47 100 S3        29.89R VSB 1/4
WILLOW GROVE   NOT AVBL
NORTH PHILA    FOG       51  50  96 CALM      29.92S VSB 1/4
PHILADELPHIA   FOG       49  48  97 CALM      29.92R VSB 1/2
$$




USA.gov is the U.S. government's official web portal to all federal, state and local government web resources and services.